Hourly Weather Lugovskoe

Today, 20 June, Sunday

Time Temperature Precipitation Wind Pressure Humidity
00:00 +6°C° 0 mm 4 mps 747 mmHg 82%
01:00 +6°C° 0 mm 4 mps 747 mmHg 82%
02:00 +6°C° 0 mm 4 mps 747 mmHg 83%
03:00 +6°C° 0 mm 4 mps 747 mmHg 82%
04:00 +6°C° 0 mm 4 mps 747 mmHg 82%
05:00 +6°C° 0 mm 4 mps 747 mmHg 82%
06:00 +7°C° 0 mm 3 mps 747 mmHg 80%
07:00 +7°C° 0 mm 3 mps 747 mmHg 79%
08:00 +7°C° 0 mm 3 mps 748 mmHg 77%
09:00 +8°C° 0 mm 3 mps 748 mmHg 72%
10:00 +10°C° 0 mm 2 mps 748 mmHg 66%
11:00 +12°C° 0 mm 2 mps 748 mmHg 61%
12:00 +13°C° 0 mm 2 mps 748 mmHg 57%
13:00 +14°C° 0 mm 2 mps 747 mmHg 54%
14:00 +14°C° 0 mm 2 mps 747 mmHg 51%
15:00 +15°C° 0 mm 2 mps 747 mmHg 52%
16:00 +15°C° 0 mm 2 mps 747 mmHg 52%
17:00 +14°C° 0 mm 3 mps 747 mmHg 53%
18:00 +13°C° 0 mm 3 mps 748 mmHg 57%
19:00 +12°C° 0 mm 3 mps 748 mmHg 62%
20:00 +11°C° 0 mm 3 mps 748 mmHg 66%
21:00 +10°C° 0 mm 3 mps 748 mmHg 69%
22:00 +10°C° 0 mm 2 mps 748 mmHg 72%
23:00 +9°C° 0 mm 2 mps 749 mmHg 75%

Tomorrow, 21 June, Monday

Time Temperature Precipitation Wind Pressure Humidity
00:00 +8°C° 0 mm 2 mps 749 mmHg 76%
01:00 +8°C° 0 mm 2 mps 749 mmHg 78%
02:00 +8°C° 0 mm 2 mps 749 mmHg 79%
03:00 +8°C° 0 mm 2 mps 749 mmHg 76%
04:00 +9°C° 0 mm 2 mps 749 mmHg 73%
05:00 +10°C° 0 mm 2 mps 750 mmHg 71%
06:00 +12°C° 0 mm 2 mps 750 mmHg 66%
07:00 +14°C° 0 mm 2 mps 750 mmHg 60%
08:00 +15°C° 0 mm 2 mps 750 mmHg 55%
09:00 +16°C° 0.1 mm 2 mps 750 mmHg 52%
10:00 +17°C° 0.1 mm 2 mps 750 mmHg 49%
11:00 +18°C° 0.1 mm 2 mps 750 mmHg 47%
12:00 +17°C° 0 mm 3 mps 750 mmHg 49%
13:00 +17°C° 0 mm 3 mps 751 mmHg 51%
14:00 +15°C° 0 mm 4 mps 751 mmHg 53%
15:00 +15°C° 0 mm 4 mps 751 mmHg 54%
16:00 +15°C° 0 mm 4 mps 751 mmHg 54%
17:00 +15°C° 0 mm 5 mps 751 mmHg 54%
18:00 +14°C° 0 mm 5 mps 751 mmHg 59%
19:00 +13°C° 0 mm 4 mps 751 mmHg 64%
20:00 +12°C° 0 mm 4 mps 751 mmHg 68%
21:00 +12°C° 0 mm 4 mps 751 mmHg 70%
22:00 +11°C° 0 mm 4 mps 751 mmHg 72%
23:00 +11°C° 0 mm 4 mps 751 mmHg 74%

Day after tomorrow, 22 June, Tuesday

Time Temperature Precipitation Wind Pressure Humidity
00:00 +10°C° 0.3 mm 4 mps 751 mmHg 79%
01:00 +10°C° 0.3 mm 4 mps 751 mmHg 84%
02:00 +9°C° 0.3 mm 3 mps 751 mmHg 88%
03:00 +8°C° 0.8 mm 4 mps 751 mmHg 90%
04:00 +8°C° 0.8 mm 4 mps 750 mmHg 91%
05:00 +8°C° 0.8 mm 4 mps 750 mmHg 93%
06:00 +8°C° 0.9 mm 4 mps 750 mmHg 94%
07:00 +8°C° 0.9 mm 4 mps 751 mmHg 95%
08:00 +8°C° 0.9 mm 4 mps 751 mmHg 96%
09:00 +8°C° 0.4 mm 4 mps 751 mmHg 95%
10:00 +10°C° 0.4 mm 4 mps 751 mmHg 94%
11:00 +10°C° 0.4 mm 4 mps 751 mmHg 93%
12:00 +10°C° 0.1 mm 5 mps 751 mmHg 89%
13:00 +10°C° 0.1 mm 5 mps 752 mmHg 85%
14:00 +12°C° 0.1 mm 5 mps 752 mmHg 80%
15:00 +13°C° 0 mm 4 mps 752 mmHg 76%
16:00 +13°C° 0 mm 4 mps 752 mmHg 71%
17:00 +14°C° 0 mm 4 mps 752 mmHg 67%
18:00 +13°C° 0 mm 4 mps 752 mmHg 71%
19:00 +12°C° 0 mm 3 mps 752 mmHg 75%
20:00 +11°C° 0 mm 3 mps 752 mmHg 79%
21:00 +10°C° 0 mm 3 mps 752 mmHg 83%
22:00 +9°C° 0 mm 3 mps 752 mmHg 87%
23:00 +8°C° 0 mm 3 mps 752 mmHg 91%

23 June, Wednesday

Time Temperature Precipitation Wind Pressure Humidity
00:00 +8°C° 0 mm 3 mps 751 mmHg 90%
01:00 +7°C° 0 mm 4 mps 751 mmHg 89%
02:00 +8°C° 0 mm 4 mps 751 mmHg 88%
03:00 +8°C° 0.1 mm 4 mps 751 mmHg 88%
04:00 +8°C° 0.1 mm 5 mps 751 mmHg 87%
05:00 +9°C° 0.1 mm 5 mps 750 mmHg 86%
06:00 +9°C° 1.7 mm 5 mps 750 mmHg 89%
07:00 +9°C° 1.7 mm 6 mps 750 mmHg 92%
08:00 +8°C° 1.7 mm 6 mps 750 mmHg 95%
09:00 +8°C° 2.7 mm 6 mps 750 mmHg 96%
10:00 +9°C° 2.7 mm 6 mps 750 mmHg 96%
11:00 +9°C° 2.7 mm 6 mps 750 mmHg 96%
12:00 +9°C° 1.1 mm 6 mps 750 mmHg 96%
13:00 +9°C° 1.1 mm 6 mps 750 mmHg 95%
14:00 +9°C° 1.1 mm 6 mps 750 mmHg 95%
15:00 +10°C° 0.1 mm 5 mps 751 mmHg 94%
16:00 +10°C° 0.1 mm 5 mps 751 mmHg 93%
17:00 +11°C° 0.1 mm 4 mps 751 mmHg 92%
18:00 +11°C° 0 mm 4 mps 751 mmHg 93%
19:00 +11°C° 0 mm 4 mps 751 mmHg 93%
20:00 +11°C° 0 mm 3 mps 751 mmHg 94%
21:00 +10°C° 0 mm 3 mps 751 mmHg 95%
22:00 +10°C° 0 mm 3 mps 751 mmHg 96%
23:00 +10°C° 0 mm 3 mps 751 mmHg 97%

24 June, Thursday

Time Temperature Precipitation Wind Pressure Humidity
00:00 +10°C° 0 mm 3 mps 751 mmHg 97%
01:00 +9°C° 0 mm 3 mps 751 mmHg 97%
02:00 +9°C° 0 mm 3 mps 751 mmHg 97%
03:00 +9°C° 0 mm 3 mps 751 mmHg 95%
04:00 +9°C° 0 mm 3 mps 752 mmHg 94%
05:00 +10°C° 0 mm 3 mps 752 mmHg 93%
06:00 +11°C° 0 mm 3 mps 752 mmHg 87%
07:00 +12°C° 0 mm 4 mps 752 mmHg 80%
08:00 +13°C° 0 mm 4 mps 753 mmHg 74%
09:00 +14°C° 0 mm 3 mps 753 mmHg 70%
10:00 +16°C° 0 mm 3 mps 753 mmHg 67%
11:00 +17°C° 0 mm 3 mps 753 mmHg 63%
12:00 +17°C° 0 mm 2 mps 753 mmHg 61%
13:00 +18°C° 0 mm 2 mps 753 mmHg 59%
14:00 +19°C° 0 mm 2 mps 753 mmHg 57%
15:00 +19°C° 0 mm 1 mps 753 mmHg 59%
16:00 +19°C° 0 mm 1 mps 753 mmHg 61%
17:00 +19°C° 0 mm 1 mps 753 mmHg 63%
18:00 +18°C° 0 mm 1 mps 753 mmHg 67%
19:00 +18°C° 0 mm 1 mps 754 mmHg 70%
20:00 +16°C° 0 mm 2 mps 754 mmHg 74%
21:00 +15°C° 0 mm 2 mps 754 mmHg 76%
22:00 +15°C° 0 mm 2 mps 754 mmHg 78%
23:00 +14°C° 0 mm 2 mps 754 mmHg 80%

25 June, Friday

Time Temperature Precipitation Wind Pressure Humidity
00:00 +12°C° 0 mm 3 mps 754 mmHg 83%
01:00 +12°C° 0 mm 3 mps 753 mmHg 86%
02:00 +11°C° 0 mm 3 mps 753 mmHg 90%
03:00 +13°C° 0 mm 2 mps 753 mmHg 87%
04:00 +13°C° 0 mm 2 mps 753 mmHg 85%
05:00 +14°C° 0 mm 2 mps 753 mmHg 82%
06:00 +14°C° 0 mm 3 mps 753 mmHg 76%
07:00 +17°C° 0 mm 3 mps 753 mmHg 69%
08:00 +18°C° 0 mm 3 mps 753 mmHg 63%
09:00 +19°C° 0 mm 4 mps 753 mmHg 59%
10:00 +20°C° 0 mm 4 mps 753 mmHg 55%
11:00 +21°C° 0 mm 4 mps 752 mmHg 51%
12:00 +21°C° 0 mm 3 mps 752 mmHg 51%
13:00 +21°C° 0 mm 3 mps 752 mmHg 51%
14:00 +21°C° 0 mm 3 mps 752 mmHg 51%
15:00 +21°C° 0 mm 3 mps 752 mmHg 53%
16:00 +21°C° 0 mm 3 mps 752 mmHg 56%
17:00 +21°C° 0 mm 2 mps 752 mmHg 59%
18:00 +20°C° 0 mm 2 mps 752 mmHg 64%
19:00 +18°C° 0 mm 2 mps 752 mmHg 69%
20:00 +18°C° 0 mm 1 mps 752 mmHg 74%
21:00 +17°C° 0 mm 2 mps 752 mmHg 75%
22:00 +16°C° 0 mm 2 mps 752 mmHg 76%
23:00 +16°C° 0 mm 2 mps 752 mmHg 77%
Show more

We Need Your Consent

Meteoprog and our Service Providers may store and access personal data such as cookies, device identifiers or other similar technologies on your device and process such data to personalise content and ads, as well as provide social media features and to analyse the traffic.

  • Store and/or access information on your device

    Cookies, device identifiers or other information can be stored or accessed on your device for the purposes indicated above.

  • Personalised ads and content, ad and content measurement, audience insights, and products development

    Ads and content can be personalised based on a profile. More data can be added to better personalise ads and content. Ad and content performance can be measured. Insights about the audience who saw the ads and content can be derived. Such data can be used to develop or improve user’s experience, systems and software.

By clicking ‘I Agree’ you will allow the use of indicated cookies, device identifiers, web beacons or other similar technologies. Your settings can be changed in the browser on your device.

For certain purposes, legitimate interests may be relied on, rather than consent. You can read more about this in our Privacy and Cookie Policy.